Weather History for Meriden, CT

Change the Weather History Date:

Monday, December 10, 2012

  Actual Average (KHVN) Record (KHVN)
Temperature  
Mean Temperature 46 °F -  
Max Temperature 54 °F 42 °F 57 °F (1987)
Min Temperature 39 °F 30 °F 10 °F (1982)
Degree Days  
Heating Degree Days 18    
Moisture  
Dew Point 45 °F    
Average Humidity 97    
Maximum Humidity 100    
Minimum Humidity 93    
Precipitation  
Precipitation 0.16 in - - ()
Sea Level Pressure  
Sea Level Pressure 29.74 in    
Wind  
Wind Speed 3 mph (SE)    
Max Wind Speed 7 mph    
Max Gust Speed -    
Visibility 2 miles    
Events Fog , Rain    
Averages and records for this station are not official NWS values.
T = Trace of Precipitation, MM = Missing Value Source: NWS Daily Summary

Daily Weather History Graph

Daily Weather History Graph

Search for Another Location

Airport:

Trip Planner

Search our weather history database for the weather conditions in past years. The results will help you decide how hot, cold, wet, or windy it might be!

Date:

Astronomy

Dec. 10, 2012 Rise Set
Actual Time 7:07 AM EST 4:21 PM EST
Civil Twilight 6:35 AM EST 4:52 PM EST
Nautical Twilight 6:01 AM EST 5:27 PM EST
Astronomical Twilight 5:27 AM EST 6:01 PM EST
Moon 3:45 AM EST (12/10) 2:09 PM EST (12/10)
Length of Visible Light 10h 16m
Length of Day
9h 14m
Waning Crescent, 10% of the Moon is Illuminated
Dec 10
Waning Crescent
Dec 13
New
Dec 20
First Quarter
Dec 28
Full
Jan 4
Last Quarter

Hourly Weather History & Observations

Time (EST) Temp. Windchill Dew Point Humidity Pressure Visibility Wind Dir Wind Speed Gust Speed Precip Events Conditions
12:10 AM 39.2 °F 35.9 °F 37.4 °F 93% 30.07 in 4.0 mi NNE 4.6 mph - 0.02 in Rain Light Rain
12:53 AM 39.9 °F 35.8 °F 37.9 °F 93% 30.04 in 4.0 mi Variable 5.8 mph - 0.08 in Rain Light Rain
1:17 AM 39.2 °F 35.0 °F 37.4 °F 93% 30.03 in 5.0 mi North 5.8 mph - 0.01 in Rain Rain
1:44 AM 39.2 °F 37.0 °F 39.2 °F 100% 30.01 in 4.0 mi NNE 3.5 mph - 0.04 in Rain Light Rain
1:53 AM 39.9 °F 35.1 °F 37.9 °F 93% 30.01 in 8.0 mi North 6.9 mph - 0.04 in Rain Light Rain
2:53 AM 41.0 °F 38.0 °F 39.0 °F 93% 29.97 in 5.0 mi NNE 4.6 mph - 0.03 in Rain Light Rain
3:53 AM 41.0 °F 39.0 °F 39.0 °F 93% 29.93 in 5.0 mi North 3.5 mph - 0.01 in Rain Rain
4:53 AM 41.0 °F - 39.0 °F 93% 29.88 in 3.0 mi Calm Calm - 0.00 in   Overcast
5:04 AM 39.2 °F - 39.2 °F 100% 29.88 in 4.0 mi Calm Calm - N/A   Overcast
5:53 AM 39.9 °F - 39.0 °F 97% 29.87 in 4.0 mi Calm Calm - N/A   Overcast
6:12 AM 39.2 °F - 39.2 °F 100% 29.86 in 2.0 mi Calm Calm - N/A   Overcast
6:53 AM 39.9 °F - 39.0 °F 97% 29.85 in 2.0 mi Calm Calm - N/A   Overcast
7:41 AM 39.2 °F - 39.2 °F 100% 29.82 in 1.2 mi Calm Calm - N/A   Overcast
7:53 AM 41.0 °F - 39.9 °F 96% 29.83 in 1.0 mi Calm Calm - N/A   Overcast
8:14 AM 41.0 °F - 39.2 °F 93% 29.82 in 0.8 mi Calm Calm - N/A   Overcast
8:23 AM 41.0 °F - 39.2 °F 93% 29.82 in 1.0 mi Calm Calm - N/A   Overcast
8:50 AM 41.0 °F - 39.2 °F 93% 29.82 in 0.8 mi Calm Calm - N/A   Overcast
8:53 AM 41.0 °F - 39.9 °F 96% 29.82 in 0.8 mi Calm Calm - N/A   Overcast
9:53 AM 42.1 °F - 41.0 °F 96% 29.79 in 0.5 mi Calm Calm - N/A Fog Fog
10:53 AM 43.0 °F - 42.1 °F 97% 29.76 in 0.5 mi Calm Calm - N/A Fog Fog
11:53 AM 44.1 °F - 43.0 °F 96% 29.72 in 0.5 mi Calm Calm - N/A Fog Fog
12:46 PM 44.6 °F - 44.6 °F 100% 29.68 in 1.2 mi Calm Calm - 0.00 in   Overcast
12:53 PM 45.0 °F - 44.1 °F 97% 29.68 in 1.0 mi Calm Calm - 0.00 in   Overcast
1:07 PM 44.6 °F - 44.6 °F 100% 29.67 in 0.8 mi Calm Calm - N/A   Overcast
1:53 PM 46.0 °F - 45.0 °F 96% 29.65 in 0.8 mi Calm Calm - N/A   Mist
2:02 PM 46.4 °F - 44.6 °F 93% 29.64 in 1.0 mi Calm Calm - N/A   Mist
2:17 PM 46.4 °F - 46.4 °F 100% 29.64 in 0.8 mi Calm Calm - 0.00 in Rain Light Rain
2:53 PM 48.0 °F - 46.9 °F 96% 29.62 in 0.5 mi Calm Calm - 0.00 in Fog Fog
3:18 PM 48.2 °F - 46.4 °F 93% 29.62 in 0.2 mi SE 3.5 mph - N/A Fog Fog
3:53 PM 48.9 °F - 48.9 °F 100% 29.60 in 0.2 mi SSE 3.5 mph - N/A Fog Fog
4:53 PM 51.1 °F - 50.0 °F 96% 29.59 in 0.2 mi SSE 5.8 mph - N/A Fog Fog
5:53 PM 53.1 °F - 52.0 °F 96% 29.56 in 0.2 mi South 5.8 mph - N/A Fog Fog
6:49 PM 53.6 °F - 53.6 °F 100% 29.56 in 0.5 mi South 5.8 mph - N/A Fog Fog
6:53 PM 54.0 °F - 53.1 °F 97% 29.55 in 0.5 mi SSE 5.8 mph - N/A Fog Fog
7:42 PM 53.6 °F - 53.6 °F 100% 29.55 in 0.8 mi South 5.8 mph - N/A   Overcast
7:53 PM 54.0 °F - 53.1 °F 97% 29.55 in 0.5 mi South 3.5 mph - N/A Fog Fog
8:18 PM 53.6 °F - 53.6 °F 100% 29.55 in 0.2 mi Calm Calm - N/A Fog Fog
8:37 PM 53.6 °F - 53.6 °F 100% 29.55 in 0.5 mi Calm Calm - N/A Fog Fog
8:53 PM 53.1 °F - 53.1 °F 100% 29.55 in 0.5 mi South 4.6 mph - N/A Fog Fog
9:53 PM 54.0 °F - 53.1 °F 97% 29.55 in 0.5 mi South 3.5 mph - N/A Fog Fog
10:53 PM 53.1 °F - 53.1 °F 100% 29.56 in 0.8 mi South 3.5 mph - N/A   Overcast
11:40 PM 51.8 °F - 51.8 °F 100% 29.56 in 0.5 mi Calm Calm - N/A Fog Fog
11:53 PM 52.0 °F - 51.1 °F 97% 29.57 in 0.5 mi Calm Calm - N/A Fog Fog